When you browse on this site, cookies collect data to enhance your experience and personalize the content and advertising you see.
Visit our Privacy Policy to learn more. By continuing to use the site, you agree to this use of cookies and data.
  • In Italy
  • List of Countries
  • For 7 days
  • Water Temperature
  • Satellite Maps
  • Weather Map
  • Weather Widgets
  • user-avatar
    Login

    Hourly Weather Canberra

    Today, 17 January, Thursday

    Time Temperature Precipitation Wind Pressure Humidity
    00:00 +25°C° 0 mm 3 mps 708 mmHg 57%
    01:00 +24°C° 0 mm 3 mps 708 mmHg 61%
    02:00 +23°C° 0 mm 2 mps 708 mmHg 64%
    03:00 +21°C° 0 mm 2 mps 708 mmHg 66%
    04:00 +22°C° 0 mm 1 mps 707 mmHg 71%
    05:00 +23°C° 0 mm 1 mps 707 mmHg 65%
    06:00 +25°C° 0 mm 1 mps 708 mmHg 60%
    07:00 +26°C° 0 mm 1 mps 708 mmHg 55%
    08:00 +29°C° 0 mm 2 mps 708 mmHg 45%
    09:00 +34°C° 0 mm 2 mps 708 mmHg 35%
    10:00 +37°C° 0 mm 2 mps 708 mmHg 24%
    11:00 +38°C° 0 mm 3 mps 708 mmHg 21%
    12:00 +41°C° 0 mm 4 mps 708 mmHg 19%
    13:00 +43°C° 0 mm 4 mps 707 mmHg 16%
    14:00 +43°C° 0 mm 4 mps 707 mmHg 16%
    15:00 +44°C° 0 mm 4 mps 707 mmHg 15%
    16:00 +43°C° 0 mm 4 mps 706 mmHg 16%
    17:00 +40°C° 0 mm 3 mps 706 mmHg 19%
    18:00 +37°C° 0 mm 3 mps 707 mmHg 23%
    19:00 +35°C° 0 mm 3 mps 707 mmHg 27%
    20:00 +33°C° 0 mm 3 mps 707 mmHg 34%
    21:00 +29°C° 0 mm 4 mps 707 mmHg 41%
    22:00 +26°C° 0 mm 4 mps 707 mmHg 48%
    23:00 +26°C° 0 mm 4 mps 707 mmHg 50%

    Tomorrow, 18 January, Friday

    Time Temperature Precipitation Wind Pressure Humidity
    00:00 +25°C° 0 mm 3 mps 707 mmHg 52%
    01:00 +24°C° 0 mm 2 mps 707 mmHg 55%
    02:00 +24°C° 0 mm 2 mps 707 mmHg 57%
    03:00 +23°C° 0 mm 1 mps 707 mmHg 60%
    04:00 +23°C° 0 mm 1 mps 707 mmHg 63%
    05:00 +24°C° 0 mm 1 mps 707 mmHg 60%
    06:00 +25°C° 0 mm 1 mps 707 mmHg 57%
    07:00 +26°C° 0 mm 1 mps 708 mmHg 55%
    08:00 +30°C° 0 mm 2 mps 708 mmHg 45%
    09:00 +34°C° 0 mm 3 mps 708 mmHg 35%
    10:00 +38°C° 0 mm 4 mps 708 mmHg 26%
    11:00 +40°C° 0 mm 4 mps 708 mmHg 22%
    12:00 +42°C° 0 mm 5 mps 707 mmHg 19%
    13:00 +45°C° 0 mm 6 mps 707 mmHg 16%
    14:00 +45°C° 0 mm 6 mps 707 mmHg 16%
    15:00 +45°C° 0 mm 6 mps 706 mmHg 16%
    16:00 +45°C° 0 mm 6 mps 706 mmHg 15%
    17:00 +41°C° 0.2 mm 5 mps 706 mmHg 21%
    18:00 +37°C° 0.2 mm 4 mps 706 mmHg 26%
    19:00 +35°C° 0.2 mm 3 mps 706 mmHg 31%
    20:00 +31°C° 1.1 mm 3 mps 706 mmHg 44%
    21:00 +28°C° 1.1 mm 3 mps 707 mmHg 58%
    22:00 +25°C° 1.1 mm 3 mps 707 mmHg 71%
    23:00 +25°C° 0.3 mm 4 mps 708 mmHg 70%

    Day after tomorrow, 19 January, Saturday

    Time Temperature Precipitation Wind Pressure Humidity
    00:00 +25°C° 0.3 mm 4 mps 708 mmHg 69%
    01:00 +23°C° 0.3 mm 4 mps 708 mmHg 68%
    02:00 +24°C° 0.1 mm 3 mps 708 mmHg 69%
    03:00 +24°C° 0.1 mm 3 mps 708 mmHg 70%
    04:00 +24°C° 0.1 mm 2 mps 708 mmHg 71%
    05:00 +25°C° 0 mm 2 mps 709 mmHg 69%
    06:00 +25°C° 0 mm 1 mps 710 mmHg 67%
    07:00 +26°C° 0 mm 1 mps 710 mmHg 64%
    08:00 +27°C° 0 mm 1 mps 711 mmHg 60%
    09:00 +28°C° 0 mm 2 mps 711 mmHg 56%
    10:00 +29°C° 0 mm 2 mps 712 mmHg 52%
    11:00 +29°C° 0 mm 3 mps 712 mmHg 52%
    12:00 +29°C° 0 mm 4 mps 712 mmHg 52%
    13:00 +30°C° 0 mm 4 mps 712 mmHg 52%
    14:00 +29°C° 0 mm 5 mps 711 mmHg 55%
    15:00 +28°C° 0 mm 5 mps 711 mmHg 58%
    16:00 +27°C° 0 mm 5 mps 711 mmHg 60%
    17:00 +25°C° 0 mm 5 mps 711 mmHg 64%
    18:00 +22°C° 0 mm 5 mps 711 mmHg 67%
    19:00 +20°C° 0 mm 5 mps 712 mmHg 70%
    20:00 +19°C° 0 mm 4 mps 712 mmHg 73%
    21:00 +18°C° 0 mm 4 mps 713 mmHg 76%
    22:00 +16°C° 0 mm 3 mps 713 mmHg 79%
    23:00 +16°C° 0 mm 3 mps 713 mmHg 82%

    20 January, Sunday

    Time Temperature Precipitation Wind Pressure Humidity
    00:00 +16°C° 0 mm 2 mps 712 mmHg 85%
    01:00 +15°C° 0 mm 2 mps 712 mmHg 87%
    02:00 +15°C° 0 mm 2 mps 712 mmHg 88%
    03:00 +15°C° 0 mm 2 mps 712 mmHg 89%
    04:00 +15°C° 0 mm 1 mps 712 mmHg 90%
    05:00 +16°C° 0 mm 1 mps 712 mmHg 85%
    06:00 +18°C° 0 mm 1 mps 713 mmHg 79%
    07:00 +20°C° 0 mm 1 mps 713 mmHg 74%
    08:00 +23°C° 0 mm 1 mps 713 mmHg 65%
    09:00 +26°C° 0 mm 2 mps 713 mmHg 56%
    10:00 +29°C° 0 mm 2 mps 714 mmHg 47%
    11:00 +31°C° 0 mm 2 mps 713 mmHg 42%
    12:00 +32°C° 0 mm 2 mps 713 mmHg 37%
    13:00 +35°C° 0 mm 2 mps 713 mmHg 32%
    14:00 +36°C° 0 mm 2 mps 712 mmHg 30%
    15:00 +36°C° 0 mm 3 mps 712 mmHg 28%
    16:00 +37°C° 0 mm 3 mps 712 mmHg 26%
    17:00 +34°C° 0 mm 3 mps 712 mmHg 34%
    18:00 +31°C° 0 mm 3 mps 711 mmHg 42%
    19:00 +29°C° 0 mm 3 mps 711 mmHg 49%
    20:00 +26°C° 0 mm 4 mps 712 mmHg 62%
    21:00 +23°C° 0 mm 4 mps 712 mmHg 74%
    22:00 +21°C° 0 mm 4 mps 712 mmHg 86%
    23:00 +21°C° 0 mm 3 mps 712 mmHg 86%

    21 January, Monday

    Time Temperature Precipitation Wind Pressure Humidity
    00:00 +21°C° 0 mm 3 mps 712 mmHg 85%
    01:00 +20°C° 0 mm 2 mps 711 mmHg 85%
    02:00 +20°C° 0 mm 2 mps 711 mmHg 88%
    03:00 +19°C° 0 mm 2 mps 711 mmHg 90%
    04:00 +20°C° 0 mm 1 mps 711 mmHg 92%
    05:00 +21°C° 0 mm 1 mps 711 mmHg 89%
    06:00 +21°C° 0 mm 1 mps 711 mmHg 85%
    07:00 +22°C° 0 mm 1 mps 711 mmHg 82%
    08:00 +25°C° 0 mm 1 mps 712 mmHg 70%
    09:00 +28°C° 0 mm 2 mps 712 mmHg 59%
    10:00 +31°C° 0 mm 2 mps 712 mmHg 48%
    11:00 +34°C° 0 mm 2 mps 711 mmHg 43%
    12:00 +35°C° 0 mm 2 mps 711 mmHg 37%
    13:00 +37°C° 0 mm 2 mps 710 mmHg 32%
    14:00 +36°C° 0 mm 2 mps 710 mmHg 33%
    15:00 +35°C° 0 mm 2 mps 709 mmHg 34%
    16:00 +35°C° 0 mm 2 mps 709 mmHg 35%
    17:00 +32°C° 0 mm 2 mps 709 mmHg 41%
    18:00 +31°C° 0 mm 1 mps 709 mmHg 46%
    19:00 +29°C° 0 mm 1 mps 709 mmHg 52%
    20:00 +28°C° 0 mm 1 mps 709 mmHg 56%
    21:00 +27°C° 0 mm 1 mps 709 mmHg 61%
    22:00 +26°C° 0 mm 1 mps 710 mmHg 66%
    23:00 +25°C° 0.3 mm 1 mps 710 mmHg 71%

    22 January, Tuesday

    Time Temperature Precipitation Wind Pressure Humidity
    00:00 +24°C° 0.3 mm 1 mps 709 mmHg 75%
    01:00 +24°C° 0.3 mm 1 mps 709 mmHg 80%
    02:00 +23°C° 0 mm 1 mps 709 mmHg 82%
    03:00 +23°C° 0 mm 1 mps 709 mmHg 84%
    04:00 +23°C° 0 mm 1 mps 708 mmHg 86%
    05:00 +24°C° 0 mm 1 mps 709 mmHg 80%
    06:00 +25°C° 0 mm 1 mps 709 mmHg 73%
    07:00 +27°C° 0 mm 1 mps 710 mmHg 67%
    08:00 +29°C° 0 mm 2 mps 710 mmHg 59%
    09:00 +31°C° 0 mm 2 mps 710 mmHg 51%
    10:00 +34°C° 0 mm 3 mps 710 mmHg 42%
    11:00 +35°C° 0 mm 3 mps 710 mmHg 37%
    12:00 +36°C° 0 mm 4 mps 709 mmHg 32%
    13:00 +38°C° 0 mm 4 mps 709 mmHg 27%
    14:00 +38°C° 0 mm 4 mps 708 mmHg 27%
    15:00 +38°C° 0 mm 4 mps 708 mmHg 27%
    16:00 +37°C° 0 mm 4 mps 708 mmHg 27%
    17:00 +36°C° 0 mm 3 mps 708 mmHg 31%
    18:00 +34°C° 0 mm 2 mps 708 mmHg 36%
    19:00 +31°C° 0 mm 1 mps 708 mmHg 40%
    20:00 +30°C° 0 mm 1 mps 708 mmHg 47%
    21:00 +28°C° 0 mm 1 mps 708 mmHg 54%
    22:00 +26°C° 0 mm 1 mps 708 mmHg 61%
    23:00 +25°C° 0 mm 1 mps 708 mmHg 68%
    Show more